Location: *
(57.8420°S, 159.8600°W)
Time: 04:10:00
(UTC+00:00)

Cosmos 1607 - Pass Details

Date: 18 May 2021
Orbit: 909 x 993 km, 65.0° (Epoch: 20 June)

Event Time Altitude Azimuth Distance (km) Brightness Sun altitude
Rises 04:41:10 0° 231° (SW) 3,580 7.6 -17.2°
Reaches altitude 10° 04:43:42 10° 233° (SW) 2,638 6.9 -17.5°
Maximum altitude 04:49:45 63° 312° (NW) 1,039 4.3 -18.3°
Drops below altitude 10° 04:55:51 10° 31° (NNE) 2,656 6.0 -19.1°
Enters shadow 04:57:45 - 33° (NNE) 3,360 6.6 -19.4°
